Temp
-13 -13 -13 -12 -12 -12 -12 -12 -11 -11 -11 -11 -11 -11 -12 -11 -11 -11 -11 -11 -11 -11 -11 -11 -12 -12 -12 -12 -12 -12 -12 -12 -12 -13 -12 -12 -12 -13 -12 -12 -12 -13 -13 -13
-13 -13 -13 -13 -12 -12 -12 -12 -11 -11 -11 -11 -11 -11 -11 -11 -11 -11 -11 -11 -11 -11 -11 -12 -12 -12 -12 -12 -12 -13 -12 -12 -13 -12 -13 -13 -13 -13 -13 -12 -12 -13 -13 -13
-13 -13 -13 -13 -12 -12 -12 -12 -12 -11 -11 -11 -11 -11 -11 -11 -11 -11 -11 -11 -11 -11 -12 -12 -12 -12 -12 -13 -13 -13 -13 -13 -13 -13 -13 -13 -13 -13 -13 -13 -13 -13 -14 -14
-13 -13 -13 -13 -13 -12 -12 -12 -12 -12 -12 -11 -11 -11 -11 -11 -11 -11 -11 -11 -12 -12 -12 -12 -12 -13 -13 -13 -13 -13 -13 -13 -13 -13 -13 -13 -13 -14 -14 -14 -14 -14 -14 -14
-13 -13 -13 -13 -13 -13 -12 -12 -12 -12 -12 -12 -12 -12 -12 -12 -11 -11 -12 -12 -12 -12 -12 -13 -13 -13 -13 -13 -13 -13 -13 -13 -13 -13 -13 -14 -14 -14 -14 -14 -14 -14 -14 -15
-13 -13 -13 -13 -13 -13 -13 -12 -12 -12 -12 -12 -12 -12 -12 -12 -12 -12 -12 -12 -12 -12 -13 -13 -13 -13 -13 -13 -13 -13 -13 -14 -14 -14 -14 -14 -14 -14 -14 -15 -15 -15 -15 -16
-13 -13 -13 -13 -13 -13 -13 -13 -13 -12 -12 -12 -13 -12 -13 -13 -13 -13 -13 -13 -12 -12 -13 -13 -13 -13 -13 -14 -14 -14 -14 -14 -14 -14 -14 -14 -15 -15 -15 -15 -15 -16 -16 -16
-13 -13 -13 -13 -13 -13 -13 -13 -14 -13 -13 -13 -13 -13 -13 -14 -14 -13 -13 -13 -13 -13 -13 -13 -13 -14 -14 -14 -15 -15 -15 -14 -15 -15 -15 -15 -15 -15 -15 -16 -16 -17 -17 -17
-13 -13 -13 -13 -13 -14 -13 -14 -14 -13 -13 -13 -13 -13 -13 -14 -14 -14 -14 -14 -13 -13 -14 -13 -14 -14 -14 -15 -15 -15 -15 -15 -16 -16 -16 -16 -16 -16 -17 -17 -17 -17 -17 -17
-13 -13 -14 -14 -14 -14 -14 -14 -14 -14 -14 -14 -13 -13 -13 -14 -14 -14 -14 -14 -14 -14 -14 -14 -15 -15 -15 -15 -15 -15 -16 -16 -17 -16 -17 -17 -17 -17 -18 -18 -18 -18 -18 -18
-14 -14 -14 -14 -14 -14 -14 -15 -15 -15 -15 -15 -14 -14 -15 -14 -15 -15 -15 -15 -15 -15 -15 -15 -15 -15 -16 -16 -16 -17 -17 -18 -18 -18 -18 -19 -19 -19 -19 -19 -19 -19 -19 -19
-14 -14 -14 -14 -14 -14 -14 -15 -15 -15 -15 -15 -15 -12 -14 -15 -15 -15 -15 -15 -15 -15 -16 -16 -16 -16 -17 -18 -18 -18 -18 -19 -19 -19 -20 -20 -20 -19 -20 -20 -20 -20 -21 -22
-14 -14 -14 -14 -14 -15 -15 -15 -15 -15 -15 -15 -16 -15 -16 -16 -15 -15 -15 -15 -15 -15 -16 -16 -17 -18 -18 -18 -18 -19 -19 -19 -20 -20 -20 -21 -21 -22 -22 -23 -24 -24 -24 -24
-15 -14 -15 -14 -15 -15 -15 -15 -16 -16 -16 -16 -16 -16 -17 -17 -16 -16 -16 -16 -16 -17 -17 -18 -18 -18 -19 -19 -19 -20 -20 -20 -21 -21 -22 -22 -24 -24 -25 -25 -25 -25 -25 -25
-15 -14 -15 -15 -15 -15 -15 -16 -16 -16 -17 -17 -17 -17 -18 -18 -17 -17 -17 -17 -18 -18 -18 -18 -19 -19 -19 -20 -20 -20 -21 -21 -22 -23 -24 -25 -25 -25 -25 -25 -25 -25 -26 -26
-15 -15 -15 -15 -15 -16 -15 -16 -17 -17 -17 -17 -18 -17 -19 -18 -18 -18 -18 -18 -18 -18 -19 -19 -19 -20 -20 -21 -21 -22 -23 -25 -25 -25 -26 -26 -26 -26 -26 -26 -27 -27 -27 -27
-15 -16 -16 -14 -16 -16 -15 -17 -17 -17 -18 -19 -19 -19 -19 -18 -19 -19 -19 -20 -20 -21 -21 -22 -22 -23 -24 -25 -25 -25 -26 -26 -26 -26 -26 -26 -27 -27 -28 -28 -28 -28 -28 -28
-16 -17 -17 -16 -17 -16 -18 -18 -18 -18 -19 -19 -20 -19 -20 -20 -21 -21 -22 -23 -24 -24 -24 -25 -26 -26 -26 -26 -26 -26 -26 -26 -26 -27 -28 -28 -28 -29 -29 -29 -29 -29 -29 -30
-17 -17 -18 -17 -18 -17 -18 -18 -18 -18 -19 -19 -20 -21 -21 -22 -22 -24 -24 -25 -26 -26 -27 -26 -26 -26 -26 -27 -27 -27 -27 -28 -28 -29 -29 -29 -29 -29 -29 -29 -30 -31 -31 -31
-17 -18 -19 -19 -20 -19 -19 -19 -20 -20 -21 -21 -22 -22 -23 -24 -25 -26 -27 -27 -27 -26 -26 -27 -28 -28 -28 -28 -29 -29 -29 -30 -30 -29 -29 -30 -30 -31 -31 -32 -32 -32 -33 -33
-18 -18 -19 -21 -21 -21 -20 -21 -22 -22 -23 -24 -26 -26 -27 -27 -27 -27 -27 -27 -28 -29 -29 -29 -29 -29 -29 -30 -30 -30 -30 -30 -30 -30 -31 -31 -32 -33 -33 -33 -33 -33 -33 -33
-19 -19 -20 -21 -21 -23 -22 -23 -24 -25 -26 -26 -26 -26 -27 -27 -27 -27 -28 -29 -29 -29 -29 -30 -30 -30 -30 -30 -30 -30 -31 -31 -32 -32 -33 -33 -33 -33 -33 -33 -33 -33 -33 -33
-20 -21 -21 -23 -23 -27 -25 -25 -25 -26 -26 -27 -27 -27 -28 -28 -29 -29 -30 -30 -30 -30 -30 -30 -30 -30 -31 -31 -31 -32 -32 -32 -33 -33 -33 -33 -33 -33 -33 -33 -33 -33 -33 -33
-22 -22 -23 -24 -25 -25 -27 -27 -28 -28 -28 -28 -29 -30 -30 -30 -31 -31 -31 -31 -31 -31 -31 -31 -31 -32 -32 -33 -33 -33 -33 -33 -33 -33 -33 -33 -33 -33 -33 -32 -33 -33 -33 -33
-24 -24 -25 -25 -26 -27 -27 -28 -29 -29 -29 -30 -30 -31 -31 -31 -31 -31 -32 -32 -32 -32 -32 -32 -33 -33 -34 -33 -33 -33 -33 -33 -33 -33 -33 -32 -32 -32 -32 -32 -32 -33 -33 -33
-24 -25 -26 -26 -27 -28 -28 -29 -29 -30 -30 -30 -30 -30 -31 -31 -32 -32 -33 -33 -33 -33 -33 -34 -34 -34 -34 -34 -33 -33 -33 -33 -33 -32 -32 -32 -32 -32 -32 -32 -32 -33 -33 -33
Height
5799 5797 5794 5791 5789 5786 5783 5779 5776 5771 5766 5763 5758 5757 5754 5749 5750 5749 5747 5746 5747 5746 5745 5746 5746 5745 5744 5743 5742 5740 5739 5737 5735 5733 5732 5730 5728 5727 5725 5722 5720 5719 5717 5714
5798 5794 5792 5789 5786 5783 5779 5775 5771 5767 5761 5756 5752 5752 5747 5743 5740 5740 5739 5737 5738 5737 5737 5738 5737 5736 5735 5734 5732 5730 5729 5727 5725 5723 5721 5719 5718 5716 5714 5711 5708 5706 5704 5702
5794 5792 5789 5786 5782 5780 5775 5770 5766 5759 5755 5750 5744 5744 5741 5736 5733 5731 5731 5730 5729 5729 5728 5729 5728 5727 5726 5724 5722 5721 5719 5717 5715 5713 5711 5708 5706 5704 5701 5698 5695 5693 5691 5690
5792 5788 5785 5782 5778 5775 5770 5766 5761 5755 5749 5743 5738 5737 5733 5730 5728 5725 5723 5722 5722 5721 5720 5720 5719 5718 5717 5715 5712 5711 5709 5707 5705 5703 5701 5698 5695 5692 5689 5686 5683 5680 5678 5676
5789 5785 5781 5778 5774 5769 5765 5760 5756 5751 5746 5740 5735 5731 5729 5725 5723 5720 5718 5716 5715 5714 5713 5712 5711 5710 5708 5706 5703 5701 5699 5697 5694 5692 5689 5686 5683 5680 5677 5673 5670 5667 5665 5662
5783 5780 5776 5773 5768 5764 5758 5754 5749 5745 5740 5736 5731 5727 5725 5721 5718 5715 5713 5711 5709 5708 5706 5705 5703 5701 5699 5697 5694 5692 5689 5686 5683 5679 5676 5672 5669 5665 5661 5658 5655 5652 5650 5647
5778 5775 5771 5767 5763 5758 5752 5746 5740 5736 5731 5729 5726 5721 5718 5715 5713 5710 5708 5705 5702 5699 5697 5695 5693 5691 5689 5686 5683 5680 5676 5672 5669 5665 5661 5657 5654 5649 5646 5643 5640 5636 5633 5630
5771 5769 5766 5761 5756 5751 5746 5741 5735 5726 5722 5721 5719 5717 5712 5709 5705 5702 5699 5696 5692 5689 5687 5685 5682 5679 5677 5674 5671 5667 5662 5659 5654 5650 5646 5642 5638 5634 5630 5626 5622 5619 5616 5613
5763 5761 5758 5753 5748 5744 5737 5733 5728 5721 5717 5709 5707 5708 5705 5701 5698 5695 5691 5687 5683 5680 5677 5674 5672 5668 5663 5659 5655 5650 5646 5642 5638 5633 5629 5625 5620 5615 5611 5608 5605 5601 5598 5595
5755 5749 5750 5746 5741 5735 5729 5725 5719 5714 5708 5699 5696 5691 5693 5691 5688 5683 5679 5675 5671 5669 5667 5664 5660 5655 5650 5646 5641 5636 5632 5628 5623 5618 5612 5608 5602 5597 5593 5589 5585 5582 5577 5574
5746 5742 5738 5736 5732 5726 5721 5716 5712 5708 5703 5694 5688 5682 5680 5679 5674 5670 5666 5663 5659 5657 5653 5648 5643 5639 5634 5628 5624 5620 5616 5611 5604 5599 5594 5588 5583 5579 5575 5569 5564 5560 5556 5552
5737 5730 5728 5725 5721 5716 5711 5708 5703 5697 5692 5684 5681 5670 5676 5669 5663 5657 5653 5650 5647 5642 5638 5633 5628 5623 5618 5613 5609 5604 5598 5591 5586 5580 5574 5569 5564 5558 5552 5546 5541 5537 5534 5531
5726 5718 5715 5710 5710 5703 5696 5695 5692 5687 5681 5678 5667 5668 5659 5656 5647 5642 5640 5636 5631 5626 5621 5615 5611 5606 5601 5596 5591 5586 5581 5575 5568 5561 5554 5547 5540 5534 5529 5524 5519 5515 5512 5509
5713 5709 5706 5701 5699 5692 5685 5680 5677 5672 5664 5660 5652 5652 5648 5642 5632 5630 5625 5621 5617 5612 5606 5600 5594 5588 5583 5578 5572 5565 5558 5552 5544 5537 5530 5523 5517 5512 5507 5503 5499 5494 5491 5488
5701 5694 5690 5686 5684 5677 5672 5666 5663 5656 5653 5643 5645 5633 5634 5624 5620 5614 5611 5605 5599 5594 5589 5583 5577 5570 5564 5557 5551 5544 5537 5530 5522 5516 5510 5504 5498 5492 5488 5482 5477 5473 5469 5465
5690 5680 5675 5669 5666 5660 5654 5651 5649 5643 5636 5629 5624 5623 5614 5608 5603 5599 5595 5589 5582 5576 5570 5563 5556 5549 5542 5535 5528 5522 5516 5510 5503 5497 5492 5485 5479 5473 5466 5460 5455 5449 5444 5440
5670 5664 5656 5651 5646 5639 5634 5634 5628 5624 5618 5614 5607 5602 5595 5588 5583 5577 5573 5566 5560 5553 5547 5541 5533 5527 5521 5516 5510 5507 5500 5493 5486 5480 5473 5465 5458 5453 5446 5439 5433 5426 5420 5414
5653 5647 5640 5634 5629 5623 5617 5614 5609 5605 5600 5594 5588 5581 5574 5569 5563 5556 5549 5543 5537 5532 5526 5520 5515 5509 5502 5495 5491 5487 5480 5473 5465 5458 5449 5442 5436 5431 5423 5416 5409 5400 5391 5385
5639 5631 5623 5616 5612 5610 5605 5598 5593 5588 5585 5575 5569 5563 5556 5549 5544 5537 5533 5527 5521 5515 5510 5505 5499 5491 5483 5475 5470 5465 5458 5450 5443 5436 5430 5422 5414 5408 5399 5389 5380 5373 5365 5359
5619 5614 5606 5600 5592 5589 5584 5578 5574 5569 5563 5558 5550 5543 5536 5532 5525 5520 5516 5510 5505 5499 5492 5486 5479 5473 5465 5457 5449 5444 5439 5433 5424 5416 5408 5398 5388 5379 5372 5364 5357 5351 5343 5338
5603 5595 5588 5580 5572 5569 5565 5561 5556 5550 5546 5538 5532 5527 5523 5518 5512 5506 5500 5493 5486 5480 5474 5467 5461 5455 5446 5439 5432 5427 5419 5410 5402 5392 5383 5374 5366 5358 5351 5344 5337 5332 5326 5321
5583 5576 5573 5565 5556 5549 5548 5540 5539 5533 5528 5521 5515 5509 5505 5500 5494 5487 5480 5474 5470 5465 5459 5452 5446 5441 5431 5421 5413 5407 5399 5389 5380 5371 5364 5356 5348 5339 5331 5326 5321 5315 5310 5307
5566 5561 5557 5549 5545 5533 5527 5526 5521 5515 5509 5503 5497 5492 5486 5481 5476 5471 5467 5462 5456 5449 5444 5437 5430 5422 5415 5405 5396 5389 5380 5371 5363 5355 5346 5338 5331 5323 5316 5311 5306 5301 5296 5292
5542 5539 5534 5530 5530 5518 5514 5511 5506 5499 5493 5488 5482 5476 5471 5468 5463 5460 5455 5449 5443 5436 5429 5421 5414 5407 5400 5390 5381 5370 5361 5354 5346 5339 5332 5324 5317 5310 5304 5298 5292 5288 5282 5277
5527 5521 5520 5516 5512 5505 5499 5495 5490 5486 5480 5474 5469 5463 5458 5454 5449 5443 5439 5433 5427 5421 5415 5407 5398 5391 5384 5376 5366 5354 5346 5339 5333 5326 5319 5312 5305 5298 5292 5285 5279 5273 5267 5262
5513 5509 5506 5501 5498 5492 5487 5483 5478 5472 5466 5460 5454 5450 5444 5440 5435 5429 5423 5417 5410 5405 5399 5394 5386 5377 5369 5361 5351 5343 5336 5329 5322 5315 5308 5301 5294 5285 5278 5272 5267 5259 5255 5251
Wind_Speed
13 15 16 18 19 23 25 27 28 31 31 31 32 29 30 35 30 31 32 33 31 31 33 33 32 34 36 38 38 37 37 38 38 37 35 37 37 38 39 43 45 46 46 46
15 16 18 20 22 25 28 31 33 34 34 35 32 27 28 32 34 31 33 35 34 34 34 32 35 37 38 38 38 38 37 39 38 37 39 40 40 41 42 44 47 48 49 50
17 20 21 22 24 25 30 32 35 39 36 35 33 27 26 31 31 31 31 32 34 34 35 34 35 37 37 38 39 38 39 39 38 41 41 42 42 44 45 46 47 49 52 53
20 22 24 26 27 29 30 32 35 38 40 37 31 25 25 27 26 27 28 29 31 32 34 34 36 37 36 38 40 41 40 41 41 42 44 45 46 47 48 49 51 52 53 54
23 25 27 28 31 32 34 35 36 38 37 33 29 27 20 22 22 24 26 28 29 31 34 36 37 36 38 39 40 41 42 44 45 45 47 49 50 51 52 52 54 56 56 56
26 29 31 32 34 35 37 38 38 39 39 36 32 28 25 24 22 21 23 25 27 30 33 34 36 37 39 40 42 44 46 47 48 49 51 53 55 55 56 58 59 58 58 57
30 31 32 35 37 38 39 41 43 43 43 42 39 34 28 27 25 27 27 29 31 35 36 37 38 39 41 43 45 47 50 51 51 53 56 58 59 61 63 63 62 61 60 59
34 34 36 39 40 41 42 43 44 47 48 48 43 38 34 29 29 31 33 31 34 37 40 41 42 42 42 47 47 49 52 54 56 59 60 63 65 67 67 67 66 64 62 63
40 41 40 42 43 43 45 42 42 46 50 53 50 40 34 32 34 33 34 37 41 42 43 44 44 48 49 50 52 55 56 57 59 62 64 67 69 69 69 69 68 66 66 67
44 47 41 42 41 42 41 42 46 51 52 56 53 50 41 35 32 36 39 41 43 45 46 46 47 50 53 56 59 61 60 60 64 68 70 71 70 70 70 70 70 70 71 70
44 43 44 42 42 42 44 46 50 52 52 55 54 54 48 41 40 42 44 46 47 48 49 51 53 55 57 58 57 57 61 65 69 70 71 70 71 71 72 74 74 74 74 73
45 49 48 49 46 46 50 52 53 54 57 59 53 53 43 45 46 48 49 50 52 54 55 59 60 59 57 61 65 66 67 70 71 70 71 72 73 75 76 77 78 78 77 75
51 54 55 56 52 54 56 56 56 57 60 57 54 50 50 48 52 54 56 58 60 61 61 60 60 62 65 68 69 70 71 72 72 72 73 74 76 77 78 79 79 79 79 76
57 58 57 57 55 57 61 61 60 60 63 59 59 53 51 52 59 58 59 61 62 62 63 65 69 71 72 70 70 70 72 73 74 76 78 79 78 78 79 81 81 81 79 76
60 62 61 62 61 61 62 64 63 64 60 63 58 58 48 55 56 59 61 64 67 69 71 72 73 73 72 73 74 74 75 77 78 78 79 79 80 83 85 83 82 78 75 74
64 69 68 70 67 67 69 68 61 62 61 58 54 55 57 63 65 65 64 65 66 68 69 71 72 73 74 75 75 75 74 74 76 77 78 81 80 77 77 77 76 76 76 76
71 70 69 70 67 70 73 67 66 61 56 57 61 63 66 67 67 67 66 66 66 67 68 69 71 72 71 70 73 73 73 73 75 76 76 76 75 75 75 76 78 80 82 84
72 68 67 70 68 71 65 63 64 66 66 66 65 67 67 67 68 68 69 67 65 66 65 65 66 68 71 70 70 70 71 72 72 73 74 74 75 76 79 82 85 87 83 78
65 66 67 69 68 70 70 70 70 69 67 67 65 66 67 68 69 65 64 65 65 65 68 67 68 69 67 68 71 72 71 72 74 76 75 77 80 84 87 85 77 72 69 66
68 65 66 67 67 68 69 69 66 65 67 69 67 65 65 60 60 64 64 64 66 68 70 66 63 64 67 69 70 70 72 74 76 79 81 86 85 79 72 69 67 62 58 54
68 67 65 63 65 67 68 68 67 65 62 61 64 68 66 63 67 66 66 67 61 52 59 64 64 65 70 69 70 73 76 79 83 84 77 72 69 68 67 61 55 52 49 47
68 69 66 66 69 67 67 66 65 67 65 66 66 65 64 66 69 67 60 57 55 57 62 62 64 67 67 71 76 79 80 73 66 64 63 63 62 59 55 51 48 47 47 45
68 65 64 64 62 59 66 64 64 64 65 65 67 68 66 61 57 54 53 55 55 56 56 64 67 68 73 76 74 66 60 61 60 57 55 52 51 51 50 48 47 46 46 46
64 63 64 61 54 58 56 59 60 62 61 60 58 55 54 52 51 51 53 55 58 62 64 66 70 72 64 57 59 62 60 57 54 52 50 50 48 47 47 46 46 46 46 46
57 59 56 56 57 56 57 54 52 51 52 53 54 56 57 57 55 53 52 54 56 60 64 62 56 49 53 58 60 60 54 49 47 48 46 46 44 45 46 48 49 48 47 44
54 53 51 48 46 46 46 45 47 50 52 53 52 51 53 54 53 53 53 52 50 46 42 42 48 53 57 58 53 46 43 45 44 43 42 43 48 48 44 40 36 35 32 32
Wind_Direction
340 345 347 345 346 344 341 337 331 323 319 308 300 300 291 287 282 272 268 267 269 268 266 268 269 269 271 274 276 277 280 281 282 286 288 289 291 294 295 298 301 301 302 302
332 333 334 335 336 337 336 335 332 329 320 316 303 296 290 288 286 279 270 268 266 266 268 268 267 268 271 273 274 276 279 279 284 285 287 289 292 291 292 295 296 297 299 299
325 325 327 327 328 333 333 333 333 332 328 319 311 299 288 290 285 281 275 269 269 267 268 267 266 267 269 270 274 278 277 279 280 283 285 287 289 290 294 296 297 297 298 297
319 320 323 322 322 323 327 329 333 334 332 328 318 310 298 293 287 282 276 272 270 269 269 267 266 268 270 272 275 275 276 277 281 282 285 286 287 291 295 295 296 297 297 298
317 319 320 320 321 320 319 322 327 330 330 333 319 308 302 298 297 288 281 276 273 270 269 269 270 271 273 275 275 276 277 279 281 283 284 286 290 294 293 294 294 294 294 295
315 317 318 319 317 317 315 317 318 324 330 335 331 315 304 299 292 287 282 280 278 276 276 276 276 276 277 277 276 279 279 280 282 283 285 289 291 290 290 291 292 295 296 296
313 314 315 315 316 316 316 317 317 319 324 331 332 321 306 299 289 286 284 280 278 277 276 277 278 278 278 279 279 280 281 281 282 284 287 291 291 290 292 292 294 295 295 295
310 312 314 315 315 315 315 315 317 320 322 322 323 323 313 299 289 282 285 279 277 276 275 277 280 280 280 282 284 286 285 284 283 284 287 290 291 292 292 293 293 293 293 294
309 309 311 311 311 310 312 313 315 317 317 317 319 317 311 302 300 297 285 280 279 277 278 279 280 283 283 282 282 283 283 282 283 285 290 290 290 290 290 291 291 292 293 291
305 305 307 307 308 308 308 311 314 317 318 318 320 317 312 311 295 284 283 283 282 283 286 288 287 283 283 285 286 286 285 285 286 288 289 289 289 289 289 290 291 291 290 288
305 305 308 310 308 305 306 309 311 313 316 313 314 312 316 312 300 295 290 286 286 288 289 286 284 284 285 284 283 283 284 286 287 289 289 289 289 290 291 291 289 288 287 286
305 302 306 307 305 303 303 305 308 312 314 311 311 302 312 301 296 293 291 292 292 292 291 290 289 289 287 287 288 289 288 289 290 290 289 290 290 289 288 287 286 285 286 288
304 301 304 305 305 303 303 306 303 303 305 309 298 306 299 298 294 292 293 291 290 290 289 288 286 286 288 289 289 290 291 290 289 288 288 287 286 285 286 289 291 291 292 294
302 301 301 300 301 299 300 300 300 301 302 303 299 301 296 292 290 292 291 291 291 290 289 289 290 291 291 291 290 289 289 288 288 287 286 287 287 288 289 291 293 294 295 296
299 299 300 300 300 297 297 297 299 301 300 296 302 295 297 291 292 290 292 292 291 290 290 289 289 289 288 288 287 286 285 284 283 284 285 286 288 289 292 294 294 295 294 292
297 298 298 297 296 295 294 295 298 296 297 297 295 297 292 293 293 292 292 289 287 286 284 283 283 282 281 280 280 281 282 283 285 286 289 292 293 294 294 296 296 294 293 291
299 299 299 298 298 297 296 299 298 297 297 299 299 297 296 294 293 292 290 287 285 282 279 280 280 281 283 286 286 288 289 290 290 291 293 294 296 297 295 294 293 292 292 291
299 298 296 297 297 298 301 301 300 300 300 299 297 295 293 291 290 290 288 286 285 284 288 291 292 292 296 298 298 297 297 295 296 298 298 298 296 294 294 293 293 293 293 291
298 297 297 296 297 297 295 296 295 296 294 292 291 290 289 287 285 283 285 289 291 292 293 293 293 298 299 298 298 300 299 299 298 298 297 294 292 294 295 296 295 294 293 292
297 297 294 295 292 293 294 294 294 294 290 291 289 286 288 289 291 294 296 294 294 295 296 297 297 297 298 300 297 296 296 296 295 296 295 297 298 297 296 296 296 295 293 291
295 293 292 292 291 289 290 292 290 290 291 289 293 295 295 291 292 294 294 297 300 291 289 291 294 299 298 294 291 294 295 296 297 299 299 297 297 297 298 297 296 295 294 294
292 291 292 291 289 290 292 290 292 291 291 292 293 294 294 293 294 299 301 299 293 285 291 296 297 296 290 289 291 296 302 301 299 299 299 299 299 299 299 298 297 296 295 293
288 288 287 284 286 289 290 290 291 293 294 294 295 296 298 300 301 299 296 293 295 295 291 292 293 292 298 300 301 300 301 302 303 303 304 304 304 302 301 299 298 296 294 292
287 286 285 287 290 287 290 293 295 294 296 300 301 300 299 299 296 294 292 289 289 289 288 288 291 295 299 300 303 307 307 308 306 307 308 307 305 302 300 298 297 296 294 292
286 287 288 289 289 293 294 296 297 298 298 298 298 297 297 298 299 298 295 293 289 289 292 296 299 302 306 310 312 310 310 309 309 310 308 307 306 304 301 299 298 297 295 294
287 287 289 290 292 292 294 296 296 297 297 297 299 302 303 305 305 304 302 302 302 306 309 309 309 310 312 315 314 314 314 313 312 311 311 309 308 306 305 304 305 303 302 300